Torna al catalogo

STARLINK-30104

AttivoComunicazioniVLEO
NORAD 56300·PAYLOAD·🇺🇸 United States

Lanciato Apr 19, 2023 da Cape Canaveral Space Force Station

Loading…

Prossimi Passaggi (prossime 24 ore)

TLE

AggiornatoSource: CelesTrak SupGP

Epoca: Sep 14, 2026, 21:28 UTC

1 56300C 23056Q   26257.89493056  .00031485  00000+0  11405-2 0  2576
2 56300  43.0028 220.5587 0001267 262.8675 130.5629 15.27560452    18

Traccia STARLINK-30104 in tempo reale con AllMySat

Download on the App Store